Time,TemperatureF,DewpointF,PressureIn,WindDirection,WindDirectionDegrees,WindSpeedMPH,WindSpeedGustMPH,Humidity,HourlyPrecipIn,Conditions,Clouds,dailyrainin,SoftwareType,DateUTC
2014-04-16 00:03:00,44.8,34.9,30.21,WNW,292,2.0,2.0,68,0.00,,,0.00,VWS V15.00,2014-04-16 05:03:00,
2014-04-16 00:08:00,44.6,34.7,30.21,NNW,338,1.1,2.2,68,0.00,,,0.00,VWS V15.00,2014-04-16 05:08:00,
2014-04-16 00:13:00,44.6,34.7,30.21,WNW,292,0.9,4.0,68,0.00,,,0.00,VWS V15.00,2014-04-16 05:13:00,
2014-04-16 00:18:00,44.6,34.7,30.21,WNW,292,0.9,4.0,68,0.00,,,0.00,VWS V15.00,2014-04-16 05:18:00,
2014-04-16 00:23:00,44.6,34.3,30.21,WNW,292,0.0,4.0,67,0.00,,,0.00,VWS V15.00,2014-04-16 05:23:00,
2014-04-16 00:28:00,44.6,34.3,30.21,WNW,292,0.0,4.9,67,0.00,,,0.00,VWS V15.00,2014-04-16 05:28:00,
2014-04-16 00:34:00,44.6,34.3,30.21,NW,315,1.3,2.7,67,0.00,,,0.00,VWS V15.00,2014-04-16 05:34:00,
2014-04-16 00:39:00,44.6,34.0,30.21,WNW,292,2.0,2.7,66,0.00,,,0.00,VWS V15.00,2014-04-16 05:39:00,
2014-04-16 00:44:00,44.6,34.0,30.21,NNW,338,2.2,3.1,66,0.00,,,0.00,VWS V15.00,2014-04-16 05:44:00,
2014-04-16 00:49:00,44.8,34.1,30.21,NNE,22,2.7,572.8,66,0.00,,,0.00,VWS V15.00,2014-04-16 05:49:00,
2014-04-16 00:54:00,44.8,33.8,30.21,ENE,68,1.6,572.8,65,0.00,,,0.00,VWS V15.00,2014-04-16 05:54:00,
2014-04-16 00:59:00,45.0,33.5,30.21,NNW,338,2.0,2.0,64,0.00,,,0.00,VWS V15.00,2014-04-16 05:59:00,
2014-04-16 01:04:00,45.0,33.5,30.21,NNE,22,1.1,3.4,64,0.00,,,0.00,VWS V15.00,2014-04-16 06:04:00,
2014-04-16 01:09:00,44.8,33.4,30.21,NW,315,2.7,4.3,64,0.00,,,0.00,VWS V15.00,2014-04-16 06:09:00,
2014-04-16 01:14:00,44.8,33.4,30.18,NNE,22,3.1,4.9,64,0.00,,,0.00,VWS V15.00,2014-04-16 06:14:00,
2014-04-16 01:19:00,44.6,33.2,30.18,East,90,1.3,4.9,64,0.00,,,0.00,VWS V15.00,2014-04-16 06:19:00,
2014-04-16 01:24:00,44.6,33.2,30.18,WNW,292,0.9,4.9,64,0.00,,,0.00,VWS V15.00,2014-04-16 06:24:00,
2014-04-16 01:29:00,44.4,33.4,30.18,WNW,292,0.0,1.3,65,0.00,,,0.00,VWS V15.00,2014-04-16 06:29:00,
2014-04-16 01:34:00,44.2,33.2,30.18,NNW,338,2.5,3.8,65,0.00,,,0.00,VWS V15.00,2014-04-16 06:34:00,
2014-04-16 01:39:00,44.1,33.1,30.18,NNW,338,1.3,3.8,65,0.00,,,0.00,VWS V15.00,2014-04-16 06:39:00,
2014-04-16 01:44:00,43.9,33.3,30.21,NE,45,0.0,3.8,66,0.00,,,0.00,VWS V15.00,2014-04-16 06:44:00,
2014-04-16 01:49:00,43.7,33.1,30.21,SE,135,0.0,3.8,66,0.00,,,0.00,VWS V15.00,2014-04-16 06:49:00,
2014-04-16 01:54:00,43.7,33.1,30.21,ENE,68,0.9,3.8,66,0.00,,,0.00,VWS V15.00,2014-04-16 06:54:00,
2014-04-16 01:59:00,43.5,32.9,30.21,NE,45,0.0,1.6,66,0.00,,,0.00,VWS V15.00,2014-04-16 06:59:00,
2014-04-16 02:04:00,43.5,32.9,30.21,NW,315,1.6,3.1,66,0.00,,,0.00,VWS V15.00,2014-04-16 07:04:00,
2014-04-16 02:09:00,43.3,32.8,30.21,SE,135,0.0,3.1,66,0.00,,,0.00,VWS V15.00,2014-04-16 07:09:00,
2014-04-16 02:15:00,43.3,32.8,30.21,NNW,338,0.9,3.1,66,0.00,,,0.00,VWS V15.00,2014-04-16 07:15:00,
2014-04-16 02:20:00,43.2,33.0,30.21,North,0,0.0,3.1,67,0.00,,,0.00,VWS V15.00,2014-04-16 07:20:00,
2014-04-16 02:25:00,43.0,32.8,30.21,NNW,338,0.9,3.1,67,0.00,,,0.00,VWS V15.00,2014-04-16 07:25:00,
2014-04-16 02:30:00,42.8,32.6,30.21,NNW,338,0.0,0.0,67,0.00,,,0.00,VWS V15.00,2014-04-16 07:30:00,
2014-04-16 02:35:00,42.6,32.8,30.21,NNW,338,1.1,2.9,68,0.00,,,0.00,VWS V15.00,2014-04-16 07:35:00,
2014-04-16 02:40:00,42.4,32.6,30.21,NNE,22,1.1,2.9,68,0.00,,,0.00,VWS V15.00,2014-04-16 07:40:00,
2014-04-16 02:45:00,42.4,32.6,30.21,ESE,112,0.0,2.9,68,0.00,,,0.00,VWS V15.00,2014-04-16 07:45:00,
2014-04-16 02:50:00,42.3,32.5,30.21,East,90,0.0,2.9,68,0.00,,,0.00,VWS V15.00,2014-04-16 07:50:00,
2014-04-16 02:55:00,42.1,32.3,30.21,NNE,22,0.0,2.9,68,0.00,,,0.00,VWS V15.00,2014-04-16 07:55:00,
2014-04-16 03:00:00,41.9,32.5,30.21,ENE,68,0.0,0.0,69,0.00,,,0.00,VWS V15.00,2014-04-16 08:00:00,
2014-04-16 03:05:00,41.7,32.3,30.21,ENE,68,0.0,0.0,69,0.00,,,0.00,VWS V15.00,2014-04-16 08:05:00,
2014-04-16 03:10:00,41.5,32.1,30.21,NW,315,0.0,0.9,69,0.00,,,0.00,VWS V15.00,2014-04-16 08:10:00,
2014-04-16 03:15:00,41.4,32.0,30.21,SSE,158,0.0,0.9,69,0.00,,,0.00,VWS V15.00,2014-04-16 08:15:00,
2014-04-16 03:20:00,41.2,31.8,30.21,NNE,22,0.0,0.9,69,0.00,,,0.00,VWS V15.00,2014-04-16 08:20:00,
2014-04-16 03:25:00,41.2,31.8,30.21,NW,315,0.9,2.0,69,0.00,,,0.00,VWS V15.00,2014-04-16 08:25:00,
2014-04-16 03:30:00,41.2,31.8,30.21,NNW,338,0.0,1.6,69,0.00,,,0.00,VWS V15.00,2014-04-16 08:30:00,
2014-04-16 03:35:00,41.0,32.0,30.21,South,180,0.0,2.0,70,0.00,,,0.00,VWS V15.00,2014-04-16 08:35:00,
2014-04-16 03:40:00,40.8,31.8,30.21,South,180,0.0,2.0,70,0.00,,,0.00,VWS V15.00,2014-04-16 08:40:00,
2014-04-16 03:45:00,40.8,31.8,30.21,NNW,338,0.0,2.0,70,0.00,,,0.00,VWS V15.00,2014-04-16 08:45:00,
2014-04-16 03:50:00,40.8,31.5,30.21,NNE,22,0.0,2.5,69,0.00,,,0.00,VWS V15.00,2014-04-16 08:50:00,
2014-04-16 03:56:00,40.6,31.3,30.21,NNW,338,0.0,2.5,69,0.00,,,0.00,VWS V15.00,2014-04-16 08:56:00,
2014-04-16 04:01:00,40.6,31.3,30.21,ESE,112,0.0,2.2,69,0.00,,,0.00,VWS V15.00,2014-04-16 09:01:00,
2014-04-16 04:06:00,40.6,30.9,30.21,NNW,338,1.3,2.2,68,0.00,,,0.00,VWS V15.00,2014-04-16 09:06:00,
2014-04-16 04:11:00,40.6,30.9,30.21,NW,315,0.9,2.2,68,0.00,,,0.00,VWS V15.00,2014-04-16 09:11:00,
2014-04-16 04:16:00,40.5,30.8,30.21,NE,45,0.0,2.2,68,0.00,,,0.00,VWS V15.00,2014-04-16 09:16:00,
2014-04-16 04:21:00,40.5,30.8,30.21,WNW,292,1.3,2.2,68,0.00,,,0.00,VWS V15.00,2014-04-16 09:21:00,
2014-04-16 04:26:00,40.5,30.8,30.21,NE,45,0.0,2.2,68,0.00,,,0.00,VWS V15.00,2014-04-16 09:26:00,
2014-04-16 04:31:00,40.3,30.6,30.21,North,0,1.6,1.6,68,0.00,,,0.00,VWS V15.00,2014-04-16 09:31:00,
2014-04-16 04:36:00,40.3,30.6,30.21,NNW,338,1.3,2.7,68,0.00,,,0.00,VWS V15.00,2014-04-16 09:36:00,
2014-04-16 04:41:00,40.1,30.4,30.21,NW,315,0.9,3.4,68,0.00,,,0.00,VWS V15.00,2014-04-16 09:41:00,
2014-04-16 04:46:00,40.1,30.4,30.21,NW,315,0.0,3.4,68,0.00,,,0.00,VWS V15.00,2014-04-16 09:46:00,
2014-04-16 04:51:00,39.9,30.2,30.21,ESE,112,0.0,3.4,68,0.00,,,0.00,VWS V15.00,2014-04-16 09:51:00,
2014-04-16 04:56:00,39.9,30.6,30.21,SE,135,0.0,3.4,69,0.00,,,0.00,VWS V15.00,2014-04-16 09:56:00,
2014-04-16 05:01:00,39.9,30.6,30.21,NNE,22,0.0,1.3,69,0.00,,,0.00,VWS V15.00,2014-04-16 10:01:00,
2014-04-16 05:06:00,39.7,30.4,30.21,SE,135,0.0,1.6,69,0.00,,,0.00,VWS V15.00,2014-04-16 10:06:00,
2014-04-16 05:11:00,39.7,30.4,30.21,ENE,68,0.0,1.6,69,0.00,,,0.00,VWS V15.00,2014-04-16 10:11:00,
2014-04-16 05:16:00,39.6,30.6,30.18,ENE,68,0.0,2.5,70,0.00,,,0.00,VWS V15.00,2014-04-16 10:16:00,
2014-04-16 05:21:00,39.6,30.6,30.18,NE,45,0.0,3.1,70,0.00,,,0.00,VWS V15.00,2014-04-16 10:21:00,
2014-04-16 05:27:00,39.6,30.6,30.18,WNW,292,2.5,3.1,70,0.00,,,0.00,VWS V15.00,2014-04-16 10:27:00,
2014-04-16 05:32:00,39.6,30.6,30.21,SSE,158,2.5,3.8,70,0.00,,,0.00,VWS V15.00,2014-04-16 10:32:00,